SCP
0 0 0 0 0 0 0 0 0 0 0 0 0 0 0 0 0 0 0 0 0 0 0 0 0 0 0 0 0 0 0 0 0 0 0 0 0 0 0 0 0 0 0
0 0 0 0 0 0 0 0 0 0 0 0 0 0 0 0 0 0 0 0 0 0 0 0 0 0 0 0 0 0 0 0 0 0 0 0 0 0 0 0 0 0 0
0 0 0 0 0 0 0 0 0 0 0 0 0 0 0 0 0 0 0 0 0 0 0 0 0 0 0 0 0 0 0 0 0 0 0 0 0 0 0 0 0 0 0
0 0 0 0 0 0 0 0 0 0 0 0 0 0 0 0 0 0 0 0 0 0 0 0 0 0 0 0 0 0 0 0 0 0 0 0 0 0 0 0 0 0 0
0 0 0 0 0 0 0 0 0 0 0 0 0 0 0 0 0 0 0 0 0 0 0 0 0 0 0 0 0 0 0 0 0 0 0 0 0 0 0 0 0 0 0
0 0 0 0 0 0 0 0 0 0 0 0 0 0 0 0 0 0 0 0 0 0 0 0 0 0 0 0 0 0 0 0 0 0 0 0 0 0 0 0 0 0 0
0 0 0 0 0 0 0 0 0 0 0 0 0 0 0 0 0 0 0 0 0 0 0 0 0 0 0 0 0 0 0 0 0 0 0 0 0 0 0 0 0 0 0
0 0 0 0 0 0 0 0 0 0 0 0 0 0 0 0 0 0 0 0 0 0 0 0 0 0 0 0 0 0 0 0 0 0 0 0 0 0 0 0 0 0 0
0 0 0 0 0 0 0 0 0 0 0 0 0 0 0 0 0 0 0 0 0 0 0 0 0 0 0 0 0 0 0 0 0 0 0 0 0 0 0 0 0 0 0
0 0 0 0 0 0 0 0 0 0 0 0 0 0 0 0 0 0 0 0 0 0 0 0 0 0 0 0 0 0 0 0 0 0 0 0 0 0 0 0 0 0 0
0 0 0 0 0 0 0 0 0 0 0 0 0 0 0 0 0 0 0 0 0 0 0 0 0 0 0 0 -0 -0 -0 -0 0 0 0 0 0 0 0 0 0 0 0
0 0 0 0 0 0 0 0 0 0 0 0 0 0 0 0 0 0 0 0 -0 -0 0 0 0 0 0 0 -0 -0 -0 -0 -0 0 0 0 0 0 0 0 0 0 0
0 0 0 0 0 0 0 0 0 0 0 0 0 0 0 0 0 0 0 0 0 -0 -0 0 0 0 0 0 -0 -0 -0 -0 -0 0 0 0 0 0 0 0 0 0 0
0 0 0 0 0 0 0 0 0 0 0 0 0 0 0 0 0 0 0 0 0 0 -0 -0 0 0 0 0 0 0 0 0 0 0 0 0 0 0 0 0 0 0 0
0 -0 0 -0 -0 0 0 0 0 0 0 0 0 0 0 0 0 0 0 0 0 0 0 0 0 0 0 0 0 0 0 0 0 0 0 0 0 0 0 0 0 0 0
0 0 0 -0 -0 -0 0 0 0 0 0 0 0 0 0 0 0 0 0 0 0 0 0 0 0 0 0 0 0 0 0 0 0 0 0 0 0 0 0 0 0 0 0
0 0 0 0 0 -0 -0 0 0 0 0 0 0 0 0 0 0 0 0 0 0 0 0 0 0 0 0 0 0 0 0 0 0 0 0 0 0 0 0 0 0 0 0
0 0 0 0 0 0 0 0 0 0 0 0 0 0 0 0 0 0 0 0 0 0 0 0 0 0 0 0 0 0 0 0 0 0 0 0 0 0 0 0 0 0 0
0 0 0 0 0 0 0 0 0 0 0 0 0 0 0 0 0 0 0 0 0 0 0 0 0 0 0 0 0 0 0 0 0 0 0 0 0 0 0 0 0 0 0
0 0 0 0 0 0 0 0 0 0 0 0 0 0 0 0 0 0 0 0 0 0 0 0 0 0 0 0 0 0 0 0 0 0 0 0 0 0 0 0 0 0 0
0 0 0 0 0 0 0 0 0 0 0 0 0 -0 0 0 0 0 0 0 0 0 0 0 0 0 0 0 0 0 0 0 0 0 0 0 0 0 0 0 0 0 0
0 0 0 0 0 0 0 0 0 0 0 0 0 0 0 0 0 0 0 0 0 0 0 0 0 0 0 0 0 0 0 0 0 0 0 0 0 0 0 0 0 0 0
0 0 0 0 0 0 0 0 0 0 0 0 0 0 0 0 0 0 0 0 0 0 0 0 0 0 0 0 0 0 0 0 0 0 0 0 0 0 0 0 0 0 0
0 0 0 0 0 0 0 0 0 0 0 0 0 0 0 0 0 0 0 0 0 0 0 0 0 0 0 0 0 0 0 0 0 0 0 0 0 0 0 0 0 0 0
0 0 0 0 0 0 0 0 0 0 -0 0 0 0 0 0 0 0 0 0 0 0 0 0 0 0 0 0 0 0 0 0 0 0 0 0 0 0 0 0 0 0 0
0 0 0 0 0 0 0 0 0 0 -0 0 0 0 0 0 0 0 0 0 0 0 0 0 0 0 0 0 0 0 0 0 0 0 0 0 0 0 0 0 0 0 0
Wind_Speed
4 4 6 7 8 8 8 8 8 7 6 4 3 2 2 1 1 1 2 2 3 4 4 4 5 5 5 5 6 5 4 3 3 3 2 1 1 0 1 2 1 2 2
2 3 5 7 8 9 9 9 8 8 7 4 2 1 1 1 1 1 1 2 3 4 4 5 4 4 4 5 5 4 4 3 3 3 3 1 2 1 0 0 1 1 1
2 1 3 5 7 8 9 8 8 8 7 6 3 2 2 2 2 2 1 2 2 3 4 5 5 4 4 4 5 5 5 4 3 3 3 3 1 0 1 1 0 1 0
2 2 1 3 5 7 7 8 8 8 8 7 5 4 3 2 2 2 1 2 2 2 3 4 4 4 4 4 4 5 4 4 3 2 2 3 3 2 0 1 1 1 1
3 2 1 0 2 4 5 6 8 8 8 7 6 5 4 2 2 2 2 3 1 2 2 3 3 4 3 4 4 4 5 4 4 3 2 2 2 3 1 0 0 1 1
6 4 3 2 2 3 4 5 7 7 7 8 7 7 5 4 3 3 3 3 2 2 2 3 3 3 3 3 4 4 3 4 4 3 2 2 2 2 1 1 0 1 1
7 6 5 3 2 3 4 5 6 7 7 8 8 7 6 6 5 4 3 4 3 2 2 3 3 3 3 3 3 3 3 3 3 3 3 2 2 2 2 1 0 0 1
8 7 6 3 2 2 3 4 5 6 7 8 8 7 7 5 4 5 4 4 3 3 3 3 3 3 3 3 2 3 2 3 2 2 2 2 2 2 2 1 1 1 1
9 8 7 5 3 1 2 3 4 5 6 7 7 7 7 7 6 6 6 4 4 3 4 4 4 3 3 4 3 2 2 2 3 2 2 2 1 2 2 2 2 2 2
10 9 8 6 5 3 1 1 2 4 4 5 6 5 7 7 7 6 6 6 5 4 5 5 5 4 4 3 3 3 3 3 2 2 3 2 2 1 1 2 2 2 2
10 9 8 8 6 5 3 1 1 2 3 5 5 6 6 7 7 7 7 7 6 6 6 6 6 5 4 4 3 4 3 4 3 2 2 2 2 2 2 2 2 2 3
9 9 9 9 8 7 5 4 3 2 3 4 5 5 5 6 7 8 8 8 7 7 7 6 6 6 5 5 5 4 4 4 4 3 3 3 2 3 2 2 2 2 3
9 9 9 9 9 8 7 6 4 4 3 3 4 5 5 6 7 8 8 8 8 8 8 8 8 7 7 6 6 6 6 5 4 4 4 3 3 3 2 3 3 2 2
10 10 9 9 9 8 7 7 6 5 4 3 3 4 5 6 7 7 7 8 8 9 9 9 8 8 8 8 7 7 7 6 5 5 5 5 4 4 4 3 3 3 3
10 10 10 10 9 9 8 8 7 6 4 3 3 4 5 5 6 7 7 8 8 9 10 10 9 9 8 8 8 8 8 8 7 6 6 5 4 3 3 3 3 3 3
9 10 10 10 10 10 9 8 7 6 5 5 5 5 5 5 6 7 7 7 8 9 9 10 10 10 9 7 8 10 9 9 9 8 7 6 8 7 7 6 5 4 4
8 9 9 10 9 10 9 8 8 7 6 6 6 6 6 6 6 7 7 7 8 9 9 10 11 12 11 10 11 13 11 11 9 9 8 6 6 7 8 9 10 8 6
6 7 8 9 9 9 9 8 8 8 8 8 8 7 7 7 7 7 8 8 9 8 9 10 11 12 11 11 12 12 14 13 11 11 10 9 9 8 8 8 8 8 7
5 6 7 8 8 9 9 9 8 8 8 9 9 9 8 8 8 8 9 9 8 9 9 10 11 12 13 12 13 13 12 12 13 12 11 11 11 8 8 9 9 8 7
4 5 6 7 8 9 9 9 9 9 10 10 10 10 10 9 9 10 10 9 8 9 10 10 11 12 13 11 13 16 11 12 12 10 11 11 12 9 12 12 10 10 8
3 4 5 6 7 8 9 9 10 10 11 11 11 11 10 10 10 10 9 9 9 9 10 11 11 11 12 11 13 16 12 12 12 10 10 9 13 12 13 13 11 8 7
3 4 4 5 6 8 9 9 10 11 11 11 11 11 11 10 9 10 10 10 9 10 10 11 11 10 10 10 11 15 17 14 13 11 10 8 13 15 14 12 9 7 7
2 3 5 6 6 7 9 10 10 11 11 11 11 11 12 10 10 10 10 9 8 8 9 9 9 9 8 8 10 14 16 17 14 11 9 7 11 13 12 13 11 11 9
2 3 5 6 7 8 9 9 11 11 12 12 12 11 12 11 11 9 9 9 8 8 9 9 10 9 9 8 7 7 9 12 13 12 9 9 10 10 9 10 11 10 9
3 4 5 6 8 8 9 10 10 11 12 12 12 12 11 11 11 10 9 10 10 9 10 10 10 10 10 9 8 8 8 8 9 10 9 9 10 10 10 10 10 10 9
4 5 6 7 8 9 9 10 10 11 12 12 11 10 10 10 10 11 11 10 12 13 15 16 16 13 14 13 12 13 13 12 11 10 10 11 11 12 12 11 11 11 10
Wind_Direction
217 213 215 209 206 204 201 191 190 181 174 172 191 206 212 230 250 307 347 321 324 332 335 328 340 340 346 342 340 338 325 323 323 295 281 217 226 284 254 259 258 215 200
223 195 204 202 205 202 198 195 191 184 184 180 183 196 241 259 295 274 266 297 320 327 326 331 332 344 339 342 349 345 328 333 329 312 295 246 166 157 92 300 263 253 189
287 236 204 205 202 203 199 196 191 184 186 176 168 168 186 226 219 237 255 289 308 316 321 330 332 339 337 356 348 343 339 328 333 342 320 312 342 59 109 56 66 31 312
335 325 248 207 204 203 200 198 191 189 183 180 192 201 229 262 287 286 274 258 270 300 311 320 325 332 340 346 342 357 335 324 326 340 332 328 335 298 166 123 64 53 45
15 5 358 270 198 189 192 195 189 190 186 192 195 216 236 258 266 262 255 268 266 281 291 307 315 328 333 344 344 343 340 335 334 333 329 320 310 284 286 221 126 84 50
34 34 41 64 106 147 175 187 190 191 190 198 204 220 234 243 250 254 262 262 256 263 267 284 299 314 332 336 336 332 341 341 341 330 332 327 317 309 300 263 204 113 63
37 41 45 61 93 142 169 184 190 193 197 205 214 221 231 240 246 255 251 265 272 265 279 272 284 309 322 321 318 316 329 333 333 335 341 339 334 325 313 281 269 147 144
35 34 32 39 70 132 169 187 196 202 201 211 218 224 225 235 245 247 262 263 274 282 283 275 282 292 302 300 302 301 315 320 321 335 336 324 342 326 312 299 254 216 185
33 31 29 29 41 87 165 194 203 210 211 219 223 227 228 230 240 244 249 257 262 267 268 264 266 270 276 287 292 294 302 303 309 318 311 313 334 310 309 286 275 271 233
33 33 31 29 30 33 41 194 225 230 223 227 228 230 234 233 239 247 246 251 256 257 258 258 258 257 256 260 269 279 301 290 294 301 304 305 294 313 296 284 275 272 272
31 31 32 33 33 38 40 33 272 255 246 240 236 232 233 238 239 240 245 249 252 245 248 250 256 258 255 248 244 263 268 281 285 269 276 274 291 283 278 275 271 263 259
36 37 35 36 35 32 28 22 359 317 280 263 252 248 245 241 243 243 243 245 248 249 250 250 250 251 250 251 252 251 256 267 277 276 272 265 239 259 272 267 257 250 253
42 40 37 35 31 28 23 18 7 348 323 285 266 259 253 251 251 252 250 249 249 249 245 245 248 250 247 246 247 247 250 255 259 262 262 261 249 245 239 250 255 251 245
43 38 33 32 27 24 21 17 10 360 346 320 283 273 270 264 261 259 257 254 253 252 250 246 246 247 246 245 244 245 247 250 249 247 247 250 246 248 244 238 241 244 238
38 33 28 24 21 21 18 16 8 360 352 340 317 302 291 281 272 264 258 257 256 257 255 254 251 246 244 243 246 244 245 248 248 244 239 234 244 281 277 270 249 231 231
34 28 25 22 16 14 10 9 4 359 349 342 332 322 309 300 287 276 265 261 257 257 256 254 252 249 243 225 230 248 247 245 244 245 241 225 213 216 222 245 267 278 258
30 24 21 18 11 8 3 0 357 354 351 346 339 330 317 305 294 287 277 266 259 255 255 254 252 250 244 217 218 228 247 248 247 246 240 232 223 219 223 209 215 226 244
26 20 14 12 8 6 3 358 356 355 353 348 339 333 323 311 301 292 282 272 268 262 255 256 254 252 249 223 221 221 238 245 243 241 241 236 230 220 226 224 219 220 212
20 14 6 3 3 4 359 354 356 355 353 347 337 331 323 316 306 294 285 279 272 268 261 258 257 254 250 225 218 219 238 241 241 237 237 238 236 201 203 228 226 221 210
20 9 2 360 1 360 354 350 352 352 349 341 332 328 323 314 306 298 292 284 273 269 269 264 259 257 257 237 215 217 237 241 239 234 233 226 236 203 192 221 225 223 216
15 1 359 1 357 351 348 348 350 349 343 335 329 324 321 315 308 303 296 289 281 275 270 268 262 260 258 246 220 214 233 241 241 235 229 222 200 209 202 220 230 223 219
4 352 349 352 348 345 343 343 344 339 334 330 327 324 321 317 312 307 301 295 287 279 273 270 268 263 258 252 233 218 225 243 245 242 236 222 187 199 204 213 218 194 202
336 338 338 336 338 342 341 335 335 331 327 325 325 323 321 319 314 310 304 298 289 281 279 275 271 269 264 254 237 225 225 229 239 245 244 225 184 193 205 210 198 192 206
317 323 324 327 333 335 332 328 327 324 322 322 322 321 321 322 320 314 305 300 295 290 286 282 278 276 270 261 251 240 230 225 231 238 227 208 194 205 214 192 195 208 212
296 308 317 324 324 326 327 328 327 324 320 319 320 320 321 319 315 311 306 299 294 292 289 288 285 280 274 269 269 263 252 238 228 226 222 213 204 204 207 207 202 202 203
291 301 310 312 315 320 322 324 323 320 318 319 321 320 317 315 312 310 307 290 275 277 270 267 270 276 276 282 270 259 256 250 233 221 222 217 212 208 205 205 203 202 203